This demonstration page uses our WeatherBlox Daily Observations layout. Learn more.

Left ArrowRight Arrow

Hourly Observations for June 22, 2016

Temp ( °F °C ) Dew Point ( °F °C ) Humidity (%) Winds ( mph kmh ) Pressure ( in mb ) Visibility ( mi km ) Precip ( " mm )
12:52 am 00:52 Clear 75 23.9 65 18.3 71 71 S 8 13 29.95 1014 10 16 0.00 0.00
1:52 am 01:52 Clear 73 22.8 65 18.3 76 76 S 7 11 29.94 1014 10 16 0.00 0.00
2:52 am 02:52 Clear 73 22.8 65 18.3 76 76 S 9 15 29.93 1013 10 16 0.00 0.00
3:52 am 03:52 Clear 72 22.2 66 18.9 82 82 S 9 15 29.90 1013 10 16 0.00 0.00
4:52 am 04:52 Clear 74 23.3 66 18.9 76 76 SSW 12 19 29.89 1012 10 16 0.00 0.00
5:52 am 05:52 Clear 74 23.3 67 19.4 79 79 S 9 15 29.91 1013 10 16 0.00 0.00
6:52 am 06:52 Sunny 74 23.3 67 19.4 79 79 S 9 15 29.94 1014 10 16 0.00 0.00
7:52 am 07:52 Sunny 78 25.6 69 20.6 74 74 S 13 20 29.94 1014 10 16 0.00 0.00
8:52 am 08:52 Sunny 83 28.3 70 21.1 65 65 SSW 15 24 29.95 1014 10 16 0.00 0.00
9:52 am 09:52 Sunny 87 30.6 70 21.1 57 57 SW 22 35 29.94 1014 10 16 0.00 0.00
10:52 am 10:52 Sunny 90 32.2 71 21.7 54 54 SSW 21 33 29.93 1014 10 16 0.00 0.00
11:52 am 11:52 Sunny 91 33 70 21 49 49 WSW 22 35 29.88 1012 10 16 0.00 0.00
12:52 pm 12:52 Sunny 93 33.9 69 20.6 46 46 SW 23 37 29.90 1013 10 16 0.00 0.00
1:52 pm 13:52 Sunny 94 34.4 69 20.6 44 44 SSW 23 37 29.88 1012 10 16 0.00 0.00
2:52 pm 14:52 Partly Cloudy 94 34.4 67 19.4 41 41 SW 18 30 29.88 1012 10 16 0.00 0.00
3:52 pm 15:52 Mostly Sunny 94 34.4 66 18.9 40 40 SW 20 31 29.88 1012 10 16 0.00 0.00
4:52 pm 16:52 Mostly Sunny 93 33.9 65 18.3 40 40 SW 23 37 29.86 1011 10 16 0.00 0.00
5:52 pm 17:52 Partly Cloudy 93 33.9 67 19.4 42 42 SW 17 28 29.85 1011 10 16 0.00 0.00
6:52 pm 18:52 Sunny 92 33.3 66 18.9 43 43 SW 15 24 29.86 1011 10 16 0.00 0.00
7:52 pm 19:52 Sunny 90 32.2 67 19.4 47 47 SW 9 15 29.87 1012 10 16 0.00 0.00
8:52 pm 20:52 Clear 82 27.8 68 20 63 63 SSW 7 11 29.88 1012 10 16 0.00 0.00
9:52 pm 21:52 Clear 83 28.3 68 20 61 61 SSW 12 19 29.89 1012 10 16 0.00 0.00
10:52 pm 22:52 Clear 82 27.8 68 20 63 63 SW 7 11 29.89 1012 10 16 0.00 0.00
11:52 pm 23:52 Clear 81 27.2 69 20.6 67 67 SSW 9 15 29.89 1012 10 16 0.00 0.00

Powered by AerisWeather